Location: Fernhill
(41.0167°S, 175.6333°E)
Time: 17:15:55
(UTC+00:00)

Cosmos 1833 Rocket - Pass Details

Date: 23 February 2026
Orbit: 832 x 837 km, 71.0° (Epoch: 8 March)

Event Time Altitude Azimuth Distance (km) Brightness Sun altitude
Exits shadow 11:32:02 21° 151° (SSE) 1,818 4.7 -37.5°
Drops below altitude 10° 11:33:50 10° 153° (SSE) 2,477 5.5 -37.6°
Sets 11:36:18 0° 154° (SSE) 3,419 6.4 -37.7°
